Theta_e
293 293 294 294 294 294 294 294 294 294 294 293 293 293 293 294 294 294 295 294 293 294 294 294 295 296 296 296 295 293 293 293 291 290 289 289 289 289 289 289 290 290 289 289 289 288 288 287 287 287 287 288 288 292 298 300 299 299 299 299 299 298 297 297 296 296 296 296 295 295 295 295 295 295
293 292 293 293 293 293 293 294 294 294 294 293 293 292 292 293 293 293 294 294 294 293 294 295 295 296 297 297 296 295 294 294 292 291 290 289 289 289 289 289 290 289 289 288 288 288 288 287 287 287 287 287 287 290 296 298 297 298 298 298 297 296 296 295 295 295 295 294 294 294 294 294 295 295
291 292 292 292 292 292 293 293 293 293 293 293 293 292 292 292 292 292 292 293 293 293 294 295 295 296 296 296 296 295 295 295 293 292 291 290 289 289 289 289 289 289 288 288 287 287 287 287 287 287 287 287 286 289 294 297 296 297 297 297 296 295 294 295 295 295 294 294 294 294 294 294 294 294
288 289 290 291 291 292 292 292 292 292 292 292 292 292 292 292 291 291 291 291 292 293 293 294 294 295 295 296 296 295 295 295 294 292 291 291 290 289 289 289 289 289 288 287 287 287 287 287 287 287 286 287 286 287 291 295 295 295 295 295 295 294 294 294 294 294 294 293 293 293 293 294 294 294
285 286 287 288 289 290 291 291 291 291 291 291 292 292 291 291 291 291 290 290 291 292 292 293 293 294 294 295 295 294 294 294 294 293 292 291 290 289 290 289 289 289 289 288 287 286 286 286 286 287 286 286 286 286 288 292 293 293 293 293 293 294 294 293 294 294 293 292 292 292 293 293 293 293
285 285 285 285 286 287 289 290 290 291 291 291 291 291 291 291 291 290 290 290 290 291 292 292 293 293 293 294 294 293 293 294 294 294 293 291 291 290 290 290 290 290 289 288 287 286 286 286 286 287 286 286 286 286 287 289 291 292 292 292 292 292 293 293 293 293 292 292 291 292 292 292 293 292
285 285 285 285 285 285 286 287 288 289 290 290 290 290 290 290 290 290 290 290 289 290 291 291 292 292 293 293 293 293 293 293 293 293 293 293 292 291 290 290 290 290 289 289 287 286 285 285 285 286 286 286 286 286 286 287 290 291 291 291 291 291 292 293 292 292 292 291 291 291 291 292 292 292
284 284 284 284 285 285 284 285 286 287 288 289 290 290 290 290 290 290 290 290 289 289 290 290 291 291 292 292 293 292 292 292 292 292 292 292 291 291 290 290 290 290 289 289 287 286 285 285 285 285 286 286 285 286 286 287 289 291 291 291 290 290 290 291 291 291 291 291 291 291 291 291 292 292
283 283 284 284 284 285 285 285 284 285 286 287 288 289 289 289 289 289 289 289 289 289 288 289 290 290 291 292 292 291 290 290 290 290 290 290 290 289 289 289 289 289 289 289 288 286 285 285 285 285 286 285 285 286 285 286 288 290 290 291 290 290 289 289 289 290 290 289 289 290 291 291 291 291
282 282 283 283 284 284 284 285 285 285 285 285 286 287 288 288 289 289 289 289 289 288 288 288 289 289 290 290 291 291 290 289 289 289 288 288 288 288 287 288 288 289 289 289 288 287 286 285 285 286 287 286 284 285 285 285 287 288 289 290 290 289 289 288 287 287 288 287 287 288 290 290 289 289
281 281 282 282 283 283 284 284 284 285 285 285 285 285 286 287 288 288 289 288 288 288 288 288 288 288 288 289 290 290 290 289 289 288 287 286 286 286 287 287 288 288 288 288 288 287 286 286 286 287 289 287 284 284 285 285 285 286 288 289 288 288 288 288 287 286 286 286 285 286 287 288 288 288
281 282 282 282 282 283 283 284 284 284 285 285 285 285 285 286 287 288 288 288 288 288 288 288 288 288 288 288 288 289 288 287 287 287 286 286 286 286 286 287 287 287 287 287 287 286 286 286 286 287 288 286 284 284 285 285 285 286 287 288 288 288 287 286 286 285 285 285 284 284 284 285 286 287
281 281 282 282 282 282 283 283 283 284 284 285 285 285 285 286 287 287 288 288 288 288 288 288 288 288 287 287 287 287 286 286 287 287 286 286 286 286 285 286 286 286 286 285 285 285 285 286 285 286 286 286 285 286 286 285 286 286 286 287 288 288 286 284 285 285 284 284 284 283 283 283 284 285
280 281 281 282 282 282 283 283 283 283 284 284 284 285 285 286 286 287 287 287 288 288 288 288 288 288 287 287 287 286 287 287 287 287 286 286 286 285 284 285 285 285 285 284 284 284 284 285 285 285 286 285 286 286 286 286 286 286 286 286 288 288 286 284 284 285 284 284 283 283 283 283 283 283
280 280 280 281 281 282 282 282 283 283 283 283 284 284 285 285 286 287 287 287 287 287 288 288 288 288 288 288 288 287 287 287 286 286 286 286 285 285 284 285 285 285 284 284 283 283 284 284 285 285 285 285 285 286 286 286 286 286 286 286 287 287 286 284 284 284 283 283 283 283 283 283 283 283
279 279 279 279 280 280 281 282 282 282 283 283 283 283 284 284 285 286 286 287 287 287 287 288 288 288 288 289 288 288 287 286 286 286 286 285 285 285 285 286 286 286 285 284 283 283 284 284 284 285 285 285 285 285 285 286 286 286 286 286 286 287 287 285 284 284 283 283 283 283 282 282 282 282
277 277 278 278 279 279 280 280 281 282 282 282 282 283 283 284 284 285 286 287 287 287 288 288 288 288 288 289 289 288 288 287 286 286 286 285 285 285 285 286 286 286 285 284 283 283 284 283 284 284 285 285 285 285 285 285 286 285 285 286 286 287 287 286 284 283 283 283 283 283 282 282 282 282
276 276 276 276 277 278 278 279 280 280 281 281 282 282 283 283 283 284 285 286 286 287 288 288 288 288 288 289 289 289 289 288 287 286 286 286 285 285 286 286 286 286 286 286 285 284 284 284 283 283 284 284 284 285 285 285 285 286 285 285 286 286 287 286 284 283 283 283 283 283 282 281 282 282
274 274 275 275 276 276 277 277 278 279 279 280 281 282 282 283 283 283 284 284 285 286 287 288 288 288 288 289 289 289 289 288 288 287 287 287 286 286 286 286 286 285 286 286 285 285 285 284 283 283 284 284 284 284 285 284 285 286 287 286 285 286 287 286 285 283 283 283 282 282 282 281 282 282
272 273 273 274 275 275 275 276 276 277 278 279 279 280 281 282 283 283 283 284 284 285 285 286 287 287 288 288 289 289 289 289 288 287 287 287 286 286 286 285 286 285 284 284 284 285 285 284 283 283 283 283 283 283 283 284 284 286 287 287 286 287 286 285 284 283 283 283 282 282 281 282 282 282
270 271 272 272 273 273 273 274 274 275 276 277 278 278 279 281 282 283 283 283 284 284 284 285 286 286 287 287 288 289 289 289 288 287 286 286 286 286 286 286 286 285 284 284 284 284 285 284 284 284 283 282 283 283 283 283 283 284 287 288 287 287 286 284 283 283 282 282 282 282 282 282 282 282
270 270 271 271 272 272 273 273 274 275 275 276 276 277 278 279 280 282 283 283 283 284 284 284 285 286 286 287 287 288 289 289 289 288 286 286 286 286 286 286 286 286 285 284 283 283 284 284 283 283 282 282 282 282 282 282 282 283 286 288 288 287 285 283 283 283 282 282 281 282 282 282 282 282
269 269 270 270 271 271 272 273 273 274 275 275 276 276 276 277 278 280 281 283 283 283 284 284 285 285 286 286 287 288 288 289 289 289 288 287 286 286 286 286 286 286 286 285 284 283 284 284 283 282 282 281 281 281 281 281 281 282 284 287 287 286 284 283 283 283 283 282 282 282 283 282 282 282
269 269 270 270 270 271 272 273 273 274 275 275 275 276 276 276 276 277 279 281 283 284 284 284 284 285 285 286 286 287 287 288 288 289 289 288 287 286 286 286 286 286 286 286 284 283 284 284 282 282 283 283 282 281 280 281 281 281 283 285 286 285 284 284 284 284 284 284 283 284 284 283 281 281
270 270 270 270 270 271 271 272 273 273 274 275 275 276 276 276 276 276 277 279 281 283 284 284 284 284 285 285 285 286 287 287 287 288 289 288 287 287 286 286 286 286 287 286 285 284 284 283 283 282 282 282 282 280 279 280 280 280 282 284 285 285 285 285 284 284 285 285 284 284 284 283 282 281
270 270 270 270 270 270 271 272 272 273 273 274 274 275 276 276 277 277 277 278 279 281 283 284 284 284 284 285 285 285 286 286 287 287 288 288 288 287 287 286 286 286 287 286 285 285 284 283 283 282 281 281 281 280 279 279 279 280 281 283 284 284 285 285 284 284 285 285 285 284 284 283 282 281
271 270 270 270 270 270 271 272 272 273 273 274 274 274 275 275 276 277 278 278 279 280 282 284 284 284 284 284 285 285 285 286 286 287 287 288 288 288 287 287 286 287 287 286 285 285 285 284 283 283 282 282 281 280 279 279 279 279 280 282 283 284 284 285 284 284 284 284 284 284 284 283 282 281
271 270 270 270 271 272 272 273 273 274 274 274 274 274 275 275 276 277 278 279 279 280 281 283 284 284 284 284 284 285 285 285 286 286 286 287 287 288 288 287 287 286 286 286 285 285 285 284 283 283 283 282 281 280 280 279 279 278 279 280 282 282 283 284 284 283 283 283 283 283 282 282 282 282
271 271 271 272 272 273 273 273 273 273 273 273 273 274 274 275 276 276 277 278 279 280 280 282 284 284 284 284 284 285 285 285 285 286 286 286 287 287 287 287 287 286 286 285 285 285 284 284 284 283 283 283 282 281 281 280 279 278 279 279 280 281 282 282 282 282 283 283 282 282 281 281 281 281
271 272 272 272 272 272 272 272 272 272 272 273 273 274 274 275 275 276 276 277 279 280 281 282 283 284 284 284 285 285 285 285 285 285 285 286 286 286 287 287 286 286 286 285 285 284 284 284 284 283 283 282 282 282 282 280 279 278 278 279 279 279 280 281 281 281 281 281 281 280 280 279 279 279
270 271 271 271 271 272 272 272 273 273 273 273 273 274 274 274 275 275 276 277 278 280 281 281 283 284 285 284 285 285 285 285 285 285 285 285 285 286 286 285 285 285 285 285 284 284 284 284 284 283 282 282 282 282 282 281 279 278 278 278 278 278 278 279 280 280 280 280 279 278 278 278 278 278
270 270 270 270 270 271 271 271 272 272 272 273 273 273 274 274 274 275 276 277 278 279 281 281 283 284 285 285 285 285 285 285 285 285 285 285 285 285 284 284 284 283 282 282 283 283 283 283 283 283 283 283 282 282 282 281 280 279 278 278 278 278 278 277 278 278 279 278 277 276 276 276 277 277
273 272 272 271 271 271 271 271 272 272 273 273 273 274 274 274 274 275 276 277 278 280 281 282 283 284 285 285 285 285 284 284 284 285 285 284 284 284 283 283 283 282 280 280 281 281 282 282 283 282 282 282 283 282 281 280 279 279 278 278 277 277 277 276 277 277 277 277 276 275 275 275 275 276
274 274 274 273 273 273 273 273 273 273 273 273 274 274 274 274 275 275 276 277 278 280 281 282 283 284 284 285 285 285 284 284 284 284 284 284 284 283 281 281 282 281 279 279 278 279 280 281 281 281 281 281 281 281 281 281 280 279 278 278 277 277 276 276 276 276 276 276 276 275 274 274 274 274
274 274 274 274 274 274 274 274 274 274 274 274 274 274 274 274 275 275 276 277 278 280 282 282 283 283 284 284 285 285 285 284 284 284 284 283 283 282 281 281 282 281 279 278 277 277 278 278 278 278 278 278 278 279 279 280 280 279 278 277 277 276 276 275 275 275 275 275 275 275 274 274 274 274
273 273 273 273 273 273 273 274 274 274 274 274 274 274 274 275 275 275 276 277 278 280 282 283 283 283 283 284 284 285 285 284 284 283 283 282 282 281 281 281 281 280 279 277 276 276 276 277 277 277 276 276 277 277 277 278 278 278 277 276 276 276 275 275 275 275 274 274 274 275 274 274 274 274
272 272 272 272 273 273 273 274 274 274 274 274 274 274 274 274 275 275 275 276 278 280 281 282 283 283 283 284 284 284 284 284 283 282 281 281 281 280 280 280 280 279 278 277 276 275 276 276 277 277 277 277 277 278 277 275 276 277 277 276 275 275 275 275 274 274 274 274 274 274 274 274 274 274
271 272 272 272 273 273 273 274 274 274 274 275 275 274 274 274 275 275 276 276 278 279 281 282 282 283 283 283 284 284 283 283 283 282 281 280 280 279 279 279 279 278 276 276 275 275 275 276 276 277 278 277 278 278 277 274 273 275 276 276 275 275 274 274 274 273 274 274 274 274 274 274 274 273
271 271 271 272 272 272 273 273 274 274 275 275 275 275 275 275 275 275 275 276 277 279 281 281 282 282 283 283 283 283 283 282 282 281 280 280 279 279 279 279 278 276 275 275 274 274 274 275 276 277 278 278 278 279 277 274 273 274 275 275 275 275 274 274 274 273 273 273 273 273 273 273 273 273
268 269 269 270 270 270 271 272 273 275 275 275 275 275 275 275 275 275 275 276 277 279 280 281 281 282 282 283 283 283 282 281 281 280 279 279 279 278 278 278 277 276 274 274 273 273 274 275 275 276 277 278 278 278 277 275 273 273 274 274 275 275 275 274 274 273 273 272 272 272 272 272 272 271
266 266 267 267 268 268 269 271 273 274 276 276 275 275 275 275 275 275 276 277 278 279 280 281 281 281 282 282 282 282 281 281 280 280 279 278 278 278 278 278 276 275 274 274 273 272 273 274 275 275 276 276 276 277 276 274 273 273 273 273 273 274 274 274 274 274 273 272 272 271 271 271 271 270
264 265 265 266 266 267 268 270 272 273 275 276 275 275 275 275 275 276 277 277 279 280 280 280 281 281 281 281 281 281 281 280 280 279 279 278 277 277 277 277 275 274 274 274 273 272 273 273 273 274 274 275 275 275 275 274 273 272 273 273 273 273 273 273 273 274 273 273 272 271 270 270 270 270
263 263 264 264 265 266 268 269 270 271 273 275 276 276 276 276 276 277 278 278 279 280 280 280 281 281 281 281 281 281 280 280 279 279 278 277 277 276 276 276 275 274 274 274 273 272 272 272 272 273 273 274 275 275 275 274 272 272 272 272 272 272 272 272 272 272 272 272 272 272 271 271 271 270
262 262 263 263 264 265 267 268 269 269 271 272 274 275 276 277 278 278 278 279 279 280 280 280 280 280 281 281 280 280 280 279 279 278 277 276 276 276 276 275 275 274 273 273 272 271 271 271 271 272 272 273 274 274 273 272 272 271 271 271 271 271 272 272 271 271 271 271 271 271 271 270 271 270
261 262 262 262 263 264 265 266 267 268 269 270 271 273 274 275 276 277 278 278 278 279 279 280 280 280 280 279 279 278 278 278 277 277 276 275 275 275 275 274 274 273 272 272 271 271 271 271 271 271 272 272 273 273 272 272 271 270 270 270 270 270 270 271 271 270 270 270 269 270 270 269 269 269
Wind_Speed
22 23 23 24 26 26 26 26 26 26 28 28 29 29 26 19 11 8 9 8 9 17 25 28 30 32 35 39 42 44 45 44 44 44 43 42 42 41 39 38 37 37 37 37 35 33 32 32 32 32 32 33 32 29 24 23 23 22 22 22 20 20 18 17 17 16 15 14 13 13 12 12 12 11
21 23 23 24 25 26 26 27 26 26 26 27 28 29 30 28 20 12 10 11 14 17 23 29 30 31 34 36 39 43 44 44 45 46 45 44 44 43 41 40 38 37 37 37 36 34 32 32 32 32 33 33 33 31 25 24 25 26 27 25 21 19 18 17 16 16 15 14 13 13 13 12 12 11
22 23 24 25 25 25 26 26 27 27 26 27 27 28 29 30 30 24 14 11 15 18 21 27 30 31 34 36 38 42 43 43 45 46 46 46 46 44 43 41 39 38 38 38 37 35 33 32 32 32 33 33 33 32 27 25 26 28 30 26 20 19 19 18 17 17 16 16 14 14 14 13 13 12
24 25 26 26 26 26 27 27 27 27 27 27 27 27 29 30 31 30 21 13 16 20 22 26 29 30 33 36 38 41 42 42 44 46 47 47 46 45 44 43 41 40 39 39 39 37 35 33 33 33 33 33 33 33 30 27 25 26 26 24 21 20 20 19 19 18 17 17 16 15 15 15 14 14
25 26 27 28 27 26 27 28 28 28 28 27 27 27 27 29 30 29 25 18 17 22 26 27 28 29 31 36 39 40 40 42 43 45 47 47 46 46 45 45 44 42 41 40 40 39 37 35 34 34 34 34 34 34 32 29 27 25 24 24 23 22 21 20 20 20 19 17 17 17 16 16 16 15
28 27 28 29 29 28 28 29 28 28 28 28 29 29 27 29 29 27 28 24 19 21 25 27 29 30 31 35 38 39 41 42 42 44 46 47 47 48 47 46 45 44 43 42 41 40 39 37 36 35 35 34 34 35 33 31 29 27 26 26 26 24 23 22 22 21 20 19 18 18 18 17 16 16
31 31 31 30 30 29 29 30 28 28 29 28 30 31 29 29 30 28 27 28 24 23 25 26 29 30 32 35 38 39 40 42 42 45 46 47 48 49 48 48 47 46 45 43 43 42 41 39 38 37 36 35 35 35 35 33 30 28 28 28 27 27 25 24 23 22 21 20 19 19 18 18 17 16
33 32 33 34 32 29 30 31 31 29 29 29 29 31 31 30 30 29 28 29 29 26 25 26 27 29 32 36 37 37 38 40 42 44 45 45 47 48 48 48 47 46 45 44 44 43 42 41 39 38 37 36 36 35 35 35 31 29 29 28 27 27 26 26 26 24 23 22 20 19 19 18 17 17
36 34 35 36 34 31 31 32 32 30 29 29 28 30 31 30 30 30 29 30 31 29 28 28 27 27 30 34 35 35 35 37 39 41 42 43 44 44 44 45 46 46 45 45 45 44 44 43 41 40 39 37 37 36 36 36 34 31 29 28 28 27 26 29 30 28 26 24 21 21 20 19 19 18
40 38 38 38 36 33 33 33 33 32 31 31 30 30 31 30 30 30 30 30 30 30 31 30 27 26 29 32 34 34 34 35 36 37 38 40 40 40 40 42 44 46 46 47 46 46 45 44 43 40 37 37 38 37 37 38 37 34 31 29 29 28 26 28 30 30 29 26 23 23 22 21 20 21
40 40 41 41 40 37 35 35 35 34 32 33 33 33 33 31 29 29 31 30 28 29 30 29 28 27 28 30 33 34 33 34 37 37 34 33 35 37 39 42 44 45 47 48 47 47 46 44 43 39 34 36 39 38 39 39 38 37 34 31 31 31 30 29 29 30 29 27 26 26 25 23 22 23
39 40 41 42 42 41 39 37 37 35 34 33 33 34 34 32 30 30 30 29 27 28 28 28 28 26 25 27 30 30 27 28 33 35 30 28 31 37 40 43 44 44 45 46 45 46 46 44 43 41 37 39 41 40 39 40 40 39 37 35 32 32 33 32 30 30 29 27 26 27 27 26 25 24
39 40 40 41 42 42 42 41 40 39 37 34 34 35 34 33 32 31 30 28 27 26 25 26 26 23 23 25 26 26 27 31 32 30 29 30 32 33 35 39 42 42 42 42 42 44 45 44 44 43 43 43 42 41 40 40 41 40 39 38 34 31 34 35 32 32 30 27 27 27 27 28 27 25
39 40 40 41 42 42 43 43 44 44 43 40 38 39 37 34 33 33 31 30 28 26 23 24 25 20 20 25 27 27 31 34 30 27 30 32 29 25 25 30 38 42 40 36 38 41 43 43 44 45 48 48 44 43 43 43 43 42 42 41 36 32 35 36 34 33 31 29 28 28 27 28 27 26
40 40 40 40 41 41 42 42 43 43 44 44 43 42 41 39 37 36 34 32 31 28 25 26 26 21 22 29 29 28 31 31 30 31 32 30 27 24 20 19 26 36 41 36 33 38 40 42 45 47 49 50 47 47 48 46 46 45 43 43 39 35 36 38 36 34 32 30 29 29 28 28 27 25
40 41 41 41 42 42 42 42 42 42 43 44 45 44 43 42 41 41 40 38 35 31 28 28 29 27 27 31 29 28 29 29 30 32 32 31 31 28 24 22 22 29 38 37 32 35 39 41 45 49 50 51 51 50 50 49 48 48 46 44 43 38 36 38 38 35 32 32 31 30 29 29 27 26
41 41 40 41 42 42 42 42 42 42 42 43 43 44 43 42 43 43 45 46 43 40 35 31 32 34 32 31 31 30 29 29 30 31 31 33 33 29 29 32 28 22 28 36 34 33 38 41 44 48 51 50 50 51 51 51 50 50 49 47 46 42 37 37 39 36 33 33 33 31 31 29 28 27
41 41 41 41 43 43 42 41 41 41 41 41 40 41 42 42 43 43 44 45 46 46 43 39 39 42 39 36 36 34 29 30 33 33 33 34 34 34 36 37 31 24 30 39 34 27 35 41 41 46 50 47 47 51 53 53 52 51 51 50 48 45 39 38 39 37 35 35 35 33 32 30 29 28
39 41 42 43 43 44 43 42 40 39 40 40 39 40 40 42 44 44 44 44 45 45 45 44 45 48 46 43 42 38 32 33 36 36 38 38 38 38 38 35 32 30 35 40 32 22 30 37 38 45 48 43 45 50 52 53 53 49 48 51 51 47 42 40 40 39 37 37 36 34 32 31 29 28
36 37 38 38 39 40 41 41 39 38 39 39 40 40 41 41 42 44 46 47 47 47 46 46 47 50 50 47 46 43 38 35 35 35 36 37 35 32 28 27 30 31 32 37 36 27 24 28 36 41 41 38 42 47 47 51 53 48 45 47 47 46 45 44 42 40 38 38 37 35 34 32 30 29
33 33 33 34 36 38 40 40 39 38 38 40 40 41 41 41 41 43 45 46 47 48 50 50 49 51 52 51 49 48 44 39 36 32 30 30 31 26 18 17 23 27 28 35 40 32 22 24 33 34 31 33 41 43 42 47 50 46 44 43 41 42 46 47 43 41 40 39 37 36 34 33 31 29
31 31 31 32 33 35 36 37 36 36 36 38 39 39 40 40 39 41 43 44 44 45 46 48 49 50 52 51 49 47 45 43 39 35 33 32 31 26 19 18 19 21 27 36 39 31 25 27 29 25 20 24 34 39 38 40 43 44 42 40 38 40 45 45 42 41 40 39 38 37 34 33 31 29
32 32 33 33 34 36 37 38 37 36 36 36 37 37 36 36 38 40 40 40 41 41 41 42 44 46 49 49 48 46 46 45 42 41 41 38 33 28 27 25 18 12 21 35 38 32 26 26 27 24 15 9 18 30 34 34 38 42 41 40 39 40 43 43 41 41 40 38 38 36 34 34 33 32
34 34 34 33 32 33 35 36 36 36 36 36 37 37 35 36 39 42 40 39 39 39 40 41 41 43 45 46 45 44 44 44 43 43 43 41 38 34 31 28 22 16 21 29 35 35 29 23 25 29 23 10 7 19 30 34 37 39 40 40 40 40 40 40 39 38 36 35 36 35 33 34 35 35
34 33 32 32 32 33 35 36 37 37 37 37 37 37 37 39 41 43 42 42 42 40 40 41 40 41 42 42 41 40 40 41 42 42 43 43 41 39 36 31 27 27 29 27 30 36 31 24 24 28 26 16 7 12 22 29 33 38 40 40 40 39 40 40 39 37 35 33 34 34 32 33 35 36
34 35 37 37 37 37 38 38 39 39 39 39 40 40 40 41 42 42 42 42 42 41 39 38 37 37 38 38 38 37 38 39 41 41 42 43 43 43 43 38 32 32 33 28 29 35 33 28 29 28 24 19 12 11 16 19 26 33 36 36 38 38 39 40 39 38 37 36 36 34 32 33 35 36
39 41 42 42 39 38 38 39 39 40 40 40 40 41 43 44 45 44 41 39 40 41 40 38 36 36 36 36 36 36 37 38 39 39 40 42 43 42 43 43 41 40 37 30 28 35 36 32 32 33 30 24 15 10 12 14 20 29 35 35 36 36 36 37 38 38 39 39 38 34 32 32 33 32
41 42 42 41 39 38 38 39 40 41 41 41 40 40 41 43 44 44 40 37 36 37 38 37 35 35 36 36 35 36 38 38 38 39 38 39 40 40 40 42 43 43 39 31 28 34 38 36 33 35 35 29 19 13 12 13 19 30 35 34 33 35 36 36 36 37 37 38 39 36 34 34 33 30
41 42 43 42 41 40 40 40 39 40 39 38 38 38 39 40 41 41 38 36 34 34 35 36 36 35 36 37 38 38 38 37 36 35 35 34 35 35 36 38 40 41 39 35 32 33 37 38 35 34 34 32 27 23 18 15 19 29 34 33 32 36 38 36 35 37 37 38 40 39 38 37 36 34
41 43 43 43 42 41 40 39 39 38 38 37 37 38 39 39 39 39 38 35 33 33 35 36 36 37 37 37 38 37 35 34 33 32 31 31 31 32 32 31 32 35 37 37 35 33 36 38 36 34 33 33 32 29 24 18 19 24 31 34 31 30 35 39 38 37 37 38 39 39 38 38 37 37
42 43 43 42 41 40 40 40 40 40 39 39 38 39 39 38 38 39 39 37 36 37 37 37 37 36 35 35 35 34 32 32 32 32 31 29 28 30 30 27 26 29 33 35 35 34 35 37 36 35 35 33 32 30 27 23 22 22 27 33 30 25 30 38 39 36 37 38 37 36 36 36 36 36
41 41 41 40 38 37 38 38 38 37 37 37 37 37 37 37 37 38 38 39 40 40 39 39 37 34 31 30 31 32 30 30 31 31 31 30 29 29 28 23 20 22 25 28 31 33 34 36 36 36 37 36 34 31 28 24 25 26 27 31 32 28 28 36 39 38 39 38 36 35 35 36 36 35
35 32 31 30 29 30 32 32 31 31 33 34 35 36 37 36 35 36 36 35 37 38 36 36 35 31 28 26 28 28 27 28 30 30 30 30 28 26 25 22 21 21 21 23 27 29 31 33 34 34 35 35 34 34 32 25 24 28 30 31 32 29 27 33 38 38 38 37 34 32 32 33 34 35
31 25 24 24 25 26 27 26 27 29 31 31 32 33 34 33 33 33 33 32 34 36 35 34 32 29 26 24 24 25 25 26 28 29 29 29 27 24 23 21 21 22 23 22 24 26 27 29 29 28 28 28 28 31 35 31 27 29 31 32 33 32 29 32 36 36 38 39 36 31 28 29 31 33
26 23 22 22 24 27 27 27 28 30 29 28 29 30 31 32 33 32 31 31 33 33 32 32 31 29 27 24 24 25 25 25 25 26 27 27 26 25 24 22 20 21 23 22 23 25 26 28 27 21 17 17 16 19 27 33 31 30 30 30 31 32 30 31 34 35 36 37 35 32 27 24 26 29
24 24 23 23 25 28 27 27 30 30 29 29 30 29 28 29 31 32 31 31 31 29 25 24 26 27 26 25 25 25 26 25 24 23 24 25 24 23 23 22 21 21 23 23 25 27 28 29 29 21 11 8 8 8 15 25 30 31 30 29 27 29 31 31 32 33 35 35 35 34 30 26 26 27
24 26 25 25 27 29 29 30 32 33 32 32 32 29 28 29 31 32 32 31 30 28 25 22 21 22 24 24 23 23 24 25 23 22 23 24 23 21 20 20 19 20 22 24 26 30 30 29 29 24 12 7 9 9 9 16 24 30 32 31 29 29 31 31 29 29 32 33 33 33 31 28 26 26
22 24 24 25 27 30 31 33 34 34 35 34 32 30 29 30 31 32 31 29 28 27 25 22 20 21 23 23 23 21 21 22 22 22 23 23 22 20 19 18 18 20 21 22 25 30 30 28 28 26 17 10 9 10 7 9 16 24 30 33 32 31 31 32 30 27 29 30 30 29 28 26 25 24
22 23 23 24 27 30 32 34 35 35 35 34 30 27 26 27 27 28 28 28 27 26 23 21 20 21 22 24 24 23 21 20 20 19 21 23 23 22 21 19 18 18 18 19 21 25 26 26 27 29 25 16 13 14 14 13 16 23 28 32 35 36 36 35 32 29 27 28 27 25 22 21 20 19
23 24 24 23 26 29 31 33 36 36 34 29 25 23 23 23 23 24 26 27 26 25 24 22 21 21 22 22 23 22 21 22 21 20 20 21 22 22 22 20 20 19 17 16 18 21 25 27 28 29 27 20 14 15 19 18 17 21 24 25 30 36 38 36 33 30 28 28 27 24 21 19 17 15
25 26 26 25 27 30 30 30 33 35 31 25 22 21 21 22 23 24 25 26 25 25 25 24 23 22 20 19 19 19 18 19 21 21 22 21 21 23 23 21 19 18 15 13 15 21 26 28 27 25 23 19 15 15 16 12 10 14 20 19 20 26 31 32 32 31 29 29 29 25 20 17 16 13
25 27 28 28 29 30 30 28 30 32 30 25 22 21 20 20 22 24 24 25 26 25 24 23 24 23 21 19 19 19 18 17 17 19 21 22 20 20 21 19 18 19 17 15 17 22 23 23 23 22 21 21 21 16 9 6 8 14 20 20 18 18 21 23 25 26 26 28 29 25 19 14 11 9
27 28 30 30 30 30 29 29 29 29 28 26 22 21 21 21 22 23 23 23 24 24 23 22 22 22 22 21 21 22 22 21 20 20 21 22 21 20 20 20 21 22 21 17 17 20 20 20 22 23 21 21 20 14 9 10 14 18 21 23 22 20 19 18 18 18 19 20 20 20 17 13 8 7
29 29 29 30 30 29 29 29 29 29 28 26 24 20 18 19 20 21 22 23 23 22 22 21 21 21 21 21 21 21 22 22 22 22 22 23 23 22 21 21 20 19 18 17 17 19 21 21 22 23 21 18 17 15 14 15 17 19 21 23 25 25 24 23 21 20 19 16 13 12 12 10 7 6
28 29 29 29 29 29 28 28 28 29 29 29 27 24 21 18 17 18 18 19 19 19 19 19 19 20 20 19 19 19 20 19 20 20 20 20 20 19 18 19 19 18 18 19 20 19 20 21 20 19 17 14 14 16 18 20 20 21 21 22 23 24 25 25 24 23 21 17 13 11 11 9 7 5
Wind_Direction
307 305 304 304 303 303 301 296 292 288 281 273 267 259 252 252 258 269 268 260 251 249 244 244 249 251 250 249 247 244 243 243 243 242 241 240 240 239 238 237 236 237 240 240 239 237 236 236 235 235 234 232 228 221 216 218 218 218 217 214 213 213 211 210 210 207 206 206 204 203 204 201 201 200
309 304 302 301 301 301 301 300 298 296 291 284 277 269 262 255 250 256 272 266 253 249 246 245 248 252 252 251 248 245 244 244 243 242 241 240 241 241 239 238 237 237 238 240 240 238 236 235 235 234 233 232 227 221 217 217 217 217 214 209 207 209 209 209 208 207 206 206 205 204 203 201 200 199
314 308 304 301 300 299 298 299 298 297 296 292 286 279 271 262 256 254 260 271 260 248 249 253 254 255 256 254 250 246 244 244 243 241 241 240 241 241 239 238 238 237 237 239 240 239 236 235 234 233 232 231 226 220 216 216 219 220 216 210 208 209 209 208 207 206 206 206 206 203 202 201 198 197
319 313 309 305 302 300 298 296 295 295 295 294 292 286 279 271 264 259 254 262 267 258 257 262 261 260 259 255 251 246 245 244 242 241 242 241 240 239 239 238 237 237 236 237 239 240 238 235 234 233 230 230 227 222 217 214 216 219 215 211 211 211 208 208 207 206 205 206 206 204 202 199 196 196
316 313 311 309 306 304 300 297 296 294 293 293 291 288 283 276 270 264 256 258 270 268 263 262 262 261 257 254 250 246 243 242 241 241 241 241 239 238 238 237 236 236 235 235 237 239 239 237 235 234 231 230 228 225 221 217 217 216 211 209 209 208 207 207 207 206 206 206 207 205 203 200 197 195
312 309 306 305 306 306 302 298 297 295 294 293 290 286 283 277 273 267 259 259 267 271 267 263 261 259 254 252 251 246 244 243 242 241 240 239 239 239 238 237 236 235 233 233 234 236 238 238 237 236 233 231 229 227 224 222 219 216 214 212 209 206 206 206 205 205 205 207 208 206 203 200 199 196
307 305 302 299 300 301 300 298 296 294 292 291 288 285 282 277 274 270 262 259 262 270 272 265 260 258 254 252 252 249 247 246 243 241 240 239 239 238 236 235 235 234 233 232 233 234 236 238 238 237 235 233 230 228 226 225 221 217 216 216 212 208 204 203 205 205 205 206 206 205 203 200 200 198
302 300 298 297 296 294 292 292 293 292 290 287 285 284 281 278 275 271 265 260 259 265 271 267 260 258 257 256 255 251 246 242 239 238 238 237 236 236 234 233 234 234 233 232 232 233 234 236 237 236 235 234 231 229 228 227 223 219 217 215 214 212 207 204 206 204 204 206 204 203 203 200 199 199
300 298 295 294 293 290 285 284 286 287 288 286 283 280 279 278 276 273 269 263 260 259 263 267 265 260 256 256 255 251 243 238 236 236 236 234 233 233 232 232 232 232 232 231 231 232 233 234 236 235 234 233 231 229 230 229 225 221 218 214 214 213 209 208 210 208 209 211 205 201 202 202 202 203
298 296 294 292 290 286 282 280 281 281 282 283 282 279 278 276 274 273 270 266 262 259 260 264 265 259 254 252 252 250 244 236 232 232 233 234 232 231 230 231 232 232 231 230 229 229 230 231 233 233 231 231 231 230 230 230 228 224 220 216 215 213 211 212 215 214 216 218 211 204 202 203 206 210
293 293 292 291 289 286 282 280 279 278 277 278 278 279 279 278 274 271 269 267 263 260 261 262 261 259 255 249 248 250 246 238 233 230 227 228 228 228 228 230 231 231 231 231 228 227 228 229 230 230 228 230 233 231 230 230 230 227 222 218 218 216 215 215 217 219 221 221 217 211 207 206 208 213
291 289 289 288 288 286 283 281 280 278 275 273 273 274 275 274 272 269 267 266 262 259 260 261 260 258 254 246 243 244 238 230 231 229 223 225 226 224 227 229 229 229 230 229 227 226 226 227 228 228 228 231 233 231 229 229 230 228 224 222 219 217 218 219 219 222 224 222 218 215 213 212 212 214
288 287 286 286 285 285 284 283 281 278 275 272 269 269 268 266 265 265 264 262 260 258 257 259 260 256 250 243 235 231 226 224 229 228 222 226 229 225 227 231 229 228 228 227 226 224 223 224 226 227 228 230 230 228 227 227 226 226 226 226 220 215 220 223 221 223 225 222 219 216 216 216 216 215
285 285 284 283 283 283 283 282 281 279 278 274 269 268 266 262 259 258 258 257 256 255 254 255 256 252 250 245 234 229 230 230 230 226 219 223 227 221 226 235 233 229 226 224 225 225 223 222 224 226 228 229 228 225 225 224 224 224 226 226 220 215 221 225 223 223 225 223 220 218 217 218 219 218
285 284 283 283 283 282 281 280 280 279 279 277 274 271 268 264 259 255 253 252 251 250 251 253 253 249 249 250 242 234 235 231 226 226 222 220 218 212 216 232 234 228 223 219 222 227 224 221 223 226 227 228 227 226 226 224 224 224 224 225 222 218 221 224 224 223 224 223 220 219 218 219 221 220
284 284 284 283 281 280 279 279 279 278 278 277 276 274 271 267 262 258 254 252 249 247 246 249 251 248 249 252 248 238 234 229 224 226 225 221 219 216 218 225 230 228 220 213 217 229 226 220 223 227 228 227 226 227 228 226 225 225 224 225 225 221 219 222 224 223 222 222 220 219 219 220 221 222
283 283 284 284 282 280 278 277 277 277 277 277 277 276 274 270 265 261 258 255 252 249 246 245 249 249 248 251 251 245 237 228 222 222 223 224 222 222 225 228 231 229 215 206 211 227 228 220 221 227 229 228 226 226 228 227 226 226 225 225 225 222 218 220 224 222 220 220 220 219 219 219 220 221
284 283 283 282 281 280 278 277 276 276 277 278 276 275 273 271 268 265 261 257 254 251 248 245 248 250 249 249 251 251 243 231 225 222 222 223 223 225 232 235 234 231 223 213 209 223 228 219 218 227 229 227 226 226 227 227 225 225 225 224 225 223 218 217 222 222 219 219 219 218 218 218 219 219
285 284 283 281 279 279 278 277 276 277 278 278 277 275 272 270 268 266 263 259 256 253 250 247 248 250 250 249 250 251 247 240 236 233 231 230 229 229 234 237 233 231 228 217 207 221 230 215 212 226 229 224 226 227 226 226 224 223 223 224 223 221 217 217 221 221 218 217 218 216 216 216 215 214
286 285 283 282 282 281 280 279 278 278 279 279 278 277 274 271 268 265 264 262 260 257 255 253 251 252 253 251 250 250 247 245 243 239 236 233 230 227 230 234 230 227 224 215 210 223 233 211 210 225 227 221 224 227 226 225 224 221 221 222 220 218 218 220 221 219 217 217 216 215 214 213 212 211
287 285 284 284 285 284 283 283 282 280 278 277 277 276 275 273 269 265 263 263 261 260 259 257 256 256 256 255 252 251 248 246 243 236 230 226 223 222 225 232 230 225 221 215 212 220 231 216 212 221 221 219 223 226 226 226 224 220 220 219 216 215 218 221 220 218 217 216 215 213 211 210 210 210
289 288 288 288 288 287 286 286 285 282 278 275 273 272 273 273 271 267 264 262 261 260 259 258 255 255 255 255 253 251 249 246 241 233 229 226 222 220 223 231 231 225 224 220 213 216 229 223 211 206 206 215 222 223 225 225 222 220 219 218 215 215 218 218 216 216 216 214 213 211 209 208 207 206
289 289 290 289 288 287 287 287 287 284 281 277 274 272 272 272 270 269 267 263 260 258 256 255 253 252 252 252 251 249 247 245 240 235 233 230 224 221 226 230 228 225 230 224 211 208 223 221 204 194 188 201 223 222 222 223 220 217 215 214 215 216 216 214 213 214 214 211 211 210 206 205 205 204
287 288 288 288 288 288 288 288 287 285 282 279 275 271 268 267 268 270 271 268 263 258 255 253 252 251 251 250 249 247 245 243 240 236 235 232 227 225 228 228 225 228 237 226 207 206 218 217 203 200 201 199 210 212 214 218 218 214 211 211 212 212 211 209 209 211 210 209 208 206 203 203 205 206
286 288 289 290 290 291 290 289 288 286 283 280 277 271 265 263 265 267 268 268 267 261 255 252 250 249 249 248 247 244 242 241 239 236 234 233 230 228 228 227 226 231 238 231 211 207 212 210 201 202 206 210 200 183 197 210 214 211 209 208 209 207 203 202 203 205 205 205 206 204 202 203 206 209
287 287 287 287 287 287 287 286 285 283 282 280 279 276 273 271 270 267 264 264 266 264 257 249 245 245 244 243 242 240 239 238 238 235 234 233 231 230 230 228 227 230 235 232 217 210 209 208 204 198 198 208 206 173 175 196 208 209 207 207 207 205 201 199 200 201 202 202 203 203 203 203 206 211
287 287 286 286 284 283 282 282 282 281 280 278 277 276 275 274 273 272 268 262 260 261 259 250 241 239 239 238 237 236 235 235 236 234 234 234 233 232 232 231 231 234 235 232 222 215 212 211 208 203 201 203 198 176 175 188 196 200 202 205 206 203 201 200 199 199 200 201 201 200 201 202 204 208
285 286 285 283 281 280 281 282 283 283 283 282 281 280 278 275 273 273 272 265 257 256 257 251 241 234 234 233 233 233 233 234 235 235 235 236 235 234 235 234 234 235 236 234 229 219 215 213 211 208 207 204 197 195 198 192 188 191 195 199 201 201 201 201 201 200 199 198 198 197 198 199 198 198
282 282 283 284 286 287 288 289 288 287 285 283 282 281 280 278 273 272 274 272 262 253 253 253 245 235 230 231 232 233 233 233 233 233 233 234 235 235 236 236 235 235 234 233 231 222 215 215 213 209 207 206 206 208 204 191 188 191 190 190 195 200 200 200 201 201 198 197 198 198 197 197 195 194
277 278 280 285 288 289 288 287 284 282 280 278 278 279 279 278 275 273 274 274 266 255 251 253 249 238 230 229 231 232 231 229 228 228 227 228 230 231 232 233 233 232 230 230 230 224 217 216 214 208 204 205 208 212 208 195 188 191 192 191 191 194 199 201 202 201 198 197 198 199 199 199 198 199
275 276 277 279 281 282 283 282 279 278 277 276 276 277 277 276 274 273 273 272 270 262 253 251 251 243 232 227 227 227 225 224 225 225 223 222 224 224 225 226 227 227 226 226 227 224 219 217 215 209 205 203 207 211 209 201 191 189 193 196 194 192 197 199 200 200 199 198 198 199 200 201 200 200
275 275 275 273 272 273 275 275 274 274 273 272 273 274 275 275 274 275 275 274 273 267 255 249 250 246 233 223 221 220 220 221 223 223 220 220 221 219 216 217 221 220 219 222 223 221 219 217 214 212 210 208 207 206 202 199 197 193 192 196 199 200 198 196 197 199 199 197 197 198 201 202 200 199
284 280 276 272 270 268 268 269 271 272 272 272 272 273 275 274 273 273 274 274 275 269 255 245 245 242 232 223 219 217 216 219 221 221 219 218 218 213 208 212 216 211 208 213 216 215 214 212 212 212 212 211 211 206 198 196 200 199 195 195 197 201 200 196 195 196 195 193 194 195 198 201 201 200
300 295 289 284 282 279 276 276 276 276 275 274 272 272 273 272 271 272 272 274 278 272 254 240 238 238 233 226 220 215 215 218 219 219 218 217 213 206 203 209 215 209 204 206 206 204 203 203 203 204 205 206 209 207 203 202 202 200 199 197 195 196 197 194 193 193 194 194 191 189 191 196 199 200
304 298 293 291 290 289 286 283 281 278 276 273 271 270 271 270 270 272 272 275 281 274 253 235 232 235 234 230 224 217 215 217 217 215 215 213 209 205 205 209 212 206 199 198 196 193 191 188 183 180 183 189 197 205 207 208 205 198 194 195 194 192 190 188 188 190 191 192 190 186 184 188 194 199
306 302 299 296 295 293 288 283 281 279 276 274 272 269 268 269 270 271 272 276 281 278 260 239 232 232 231 230 227 219 214 214 212 207 205 204 205 206 208 212 213 205 196 195 192 187 185 183 178 173 168 172 184 202 210 209 206 199 190 186 187 187 184 181 184 186 187 189 190 188 184 184 189 195
304 301 299 295 293 292 288 286 286 284 281 278 273 267 263 264 267 270 273 277 281 278 265 250 241 237 233 231 229 223 216 211 206 200 198 199 201 203 206 211 212 203 195 195 191 185 183 184 183 183 181 179 193 204 200 197 201 201 193 185 180 180 179 176 176 181 186 187 188 189 188 185 186 192
303 299 297 295 295 296 294 293 292 289 284 279 272 265 260 260 264 269 273 278 282 278 264 251 246 245 241 238 235 229 218 210 203 198 196 195 196 200 203 206 205 198 193 191 189 187 187 188 188 190 189 186 197 203 186 172 188 196 195 189 180 174 174 175 174 177 182 185 187 191 191 188 187 191
308 305 303 302 303 304 302 299 297 294 289 282 273 264 259 258 261 267 271 275 279 275 264 254 251 249 246 242 236 226 214 205 201 198 196 195 197 199 201 202 198 192 187 184 184 187 190 192 195 197 197 198 207 205 188 174 178 186 191 193 187 179 177 178 177 175 177 179 179 181 183 185 185 186
312 309 307 306 307 308 306 305 306 304 296 287 276 266 260 258 261 266 269 271 274 271 263 255 253 251 248 241 229 216 205 200 200 199 197 198 199 200 201 200 193 186 181 181 182 186 193 198 201 202 202 205 209 194 175 163 163 173 180 189 193 189 185 182 178 173 171 173 173 170 169 174 177 176
314 311 310 309 308 307 306 308 314 316 309 294 279 269 263 260 259 262 265 266 268 267 260 251 247 247 246 238 223 209 202 201 201 199 197 199 202 203 202 197 188 182 181 182 185 191 197 200 199 200 201 194 176 160 153 144 143 161 167 173 186 192 191 189 186 180 174 172 170 166 163 169 175 175
316 313 312 312 310 307 306 309 316 322 320 307 287 272 267 263 262 263 264 264 266 265 257 249 245 243 240 235 223 212 207 207 206 203 199 198 199 198 195 189 184 183 186 190 193 193 193 191 189 190 189 178 165 159 158 154 148 154 156 156 163 176 184 189 191 189 184 180 175 168 162 163 168 178
319 316 316 317 315 312 313 315 318 322 326 321 306 286 272 265 263 263 264 264 265 263 257 252 249 242 236 231 224 217 212 211 210 206 202 198 194 189 188 188 187 187 188 187 182 178 174 174 177 177 172 170 171 170 161 150 149 149 152 153 153 154 158 165 172 176 178 181 180 177 174 172 167 173
322 319 319 321 322 320 320 321 322 323 327 331 329 317 297 280 272 268 267 267 267 264 258 254 249 242 237 231 224 217 215 214 210 204 198 195 193 190 188 186 183 181 176 165 156 159 164 167 170 171 169 171 174 167 152 147 149 149 150 151 149 148 148 149 150 151 151 152 156 164 170 172 170 168
324 322 322 324 325 327 329 330 330 332 333 336 339 339 334 324 312 301 293 286 278 269 261 253 246 241 235 226 217 211 208 205 201 196 191 189 188 185 182 176 168 164 162 155 150 151 156 159 163 168 169 168 169 164 156 152 151 149 148 147 146 146 147 148 147 148 148 146 149 160 168 171 176 181